Weather History for PAGY - April, 2013

Change the Weather History Date:

Wednesday, April 10, 2013

  Actual Average Record
Temperature  
Mean Temperature 36 °F -  
Max Temperature 37 °F 44 °F 63 °F (1984)
Min Temperature 34 °F 30 °F 15 °F (1986)
Degree Days  
Heating Degree Days 30    
Moisture  
Dew Point 23 °F    
Average Humidity 60    
Maximum Humidity 73    
Minimum Humidity 43    
Precipitation  
Precipitation 0.00 in - - ()
Sea Level Pressure  
Sea Level Pressure 29.80 in    
Wind  
Wind Speed 23 mph (SSW)    
Max Wind Speed 33 mph    
Max Gust Speed 41 mph    
Visibility 10 miles    
Events Snow    
Averages and records for this station are not official NWS values.
T = Trace of Precipitation, MM = Missing Value Source: NWS Daily Summary

Daily Weather History Graph

Daily Weather History Graph

Search for Another Location

Airport or City:

Trip Planner

Search our weather history database for the weather conditions in past years. The results will help you decide how hot, cold, wet, or windy it might be!

Date:

Astronomy

Apr. 10, 2013 Rise Set
Actual Time 5:59 AM AKDT 8:06 PM AKDT
Civil Twilight 5:15 AM AKDT 8:51 PM AKDT
Nautical Twilight 4:18 AM AKDT 9:48 PM AKDT
Astronomical Twilight 3:07 AM AKDT 11:01 PM AKDT
Moon 5:51 AM AKDT (4/10) 9:08 PM AKDT (4/10)
Length of Visible Light 15h 35m
Length of Day
14h 07m
New Moon, 0% of the Moon is Illuminated
Apr 10
New Moon
Apr 18
First Quarter
Apr 25
Full
May 2
Last Quarter
May 9
New

Hourly Weather History & Observations

Time (AKDT) Temp. Windchill Dew Point Humidity Pressure Visibility Wind Dir Wind Speed Gust Speed Precip Events Conditions
12:53 AM 37.0 °F 27.7 °F 19.9 °F 50% 29.65 in 10.0 mi SSW 16.1 mph 29.9 mph 0.00 in   Overcast
1:53 AM 36.0 °F 25.3 °F 23.0 °F 59% 29.66 in 10.0 mi SSW 19.6 mph 38.0 mph N/A   Overcast
2:53 AM 36.0 °F 26.7 °F 15.1 °F 43% 29.68 in 10.0 mi SSW 15.0 mph 20.7 mph N/A   Overcast
3:53 AM 35.1 °F 23.0 °F 23.0 °F 61% 29.70 in 10.0 mi SSW 24.2 mph 36.8 mph N/A   Overcast
4:53 AM 35.1 °F 22.0 °F 24.1 °F 64% 29.69 in 10.0 mi SSW 28.8 mph 33.4 mph N/A   Overcast
5:53 AM 34.0 °F 21.0 °F 24.1 °F 67% 29.71 in 10.0 mi SW 26.5 mph 36.8 mph N/A   Scattered Clouds
6:53 AM 35.1 °F 25.2 °F 24.1 °F 64% 29.72 in 10.0 mi SSW 16.1 mph 34.5 mph N/A   Mostly Cloudy
7:53 AM 36.0 °F 25.3 °F 19.0 °F 50% 29.73 in 10.0 mi SSW 19.6 mph 23.0 mph N/A   Overcast
8:53 AM 36.0 °F 23.9 °F 19.9 °F 52% 29.75 in 10.0 mi SSW 25.3 mph 32.2 mph N/A   Overcast
9:53 AM 36.0 °F 23.5 °F 21.9 °F 57% 29.76 in 10.0 mi SSW 27.6 mph 33.4 mph N/A   Overcast
10:53 AM 37.0 °F 23.9 °F 24.1 °F 59% 29.78 in 10.0 mi SSW 33.4 mph 40.3 mph 0.00 in Snow Light Snow
11:53 AM 37.0 °F 24.3 °F 25.0 °F 62% 29.80 in 10.0 mi SSW 31.1 mph 39.1 mph 0.00 in   Overcast
12:53 PM 37.0 °F 24.7 °F 21.9 °F 54% 29.80 in 10.0 mi SSW 28.8 mph 35.7 mph N/A   Scattered Clouds
1:53 PM 37.0 °F 24.5 °F 24.1 °F 59% 29.82 in 10.0 mi SSW 29.9 mph 41.4 mph N/A   Overcast
2:53 PM 37.0 °F 24.9 °F 25.0 °F 62% 29.84 in 10.0 mi SSW 27.6 mph 38.0 mph N/A   Overcast
3:53 PM 37.0 °F 24.3 °F 25.0 °F 62% 29.83 in 10.0 mi SSW 31.1 mph 39.1 mph 0.00 in   Overcast
4:53 PM 36.0 °F 23.5 °F 25.0 °F 64% 29.86 in 9.0 mi SSW 27.6 mph 38.0 mph 0.00 in Snow Light Snow
5:53 PM 35.1 °F 22.0 °F 25.0 °F 67% 29.86 in 10.0 mi SSW 28.8 mph 38.0 mph 0.00 in   Mostly Cloudy
6:53 PM 36.0 °F 23.7 °F 24.1 °F 62% 29.88 in 10.0 mi SSW 26.5 mph 34.5 mph N/A   Overcast
7:53 PM 35.1 °F 22.7 °F 23.0 °F 61% 29.90 in 10.0 mi SW 25.3 mph 36.8 mph N/A   Overcast
8:53 PM 34.0 °F 20.8 °F 26.1 °F 73% 29.91 in 10.0 mi SSW 27.6 mph 35.7 mph 0.00 in   Overcast
9:53 PM 35.1 °F 22.0 °F 24.1 °F 64% 29.91 in 9.0 mi SW 28.8 mph 35.7 mph 0.00 in   Overcast
10:53 PM 35.1 °F 22.2 °F 25.0 °F 67% 29.93 in 9.0 mi SSW 27.6 mph 36.8 mph 0.00 in   Scattered Clouds
11:53 PM 35.1 °F 21.6 °F 24.1 °F 64% 29.95 in 10.0 mi SSW 31.1 mph 39.1 mph 0.00 in Snow Light Snow